Weather History for Blackwell, OK

Change the Weather History Date:

Friday, January 25, 2013

  Actual Average (KPNC) Record (KPNC)
Temperature  
Mean Temperature 36 °F -  
Max Temperature 48 °F 53 °F 80 °F (1950)
Min Temperature 24 °F 30 °F 9 °F (1961)
Degree Days  
Heating Degree Days 29    
Moisture  
Dew Point 24 °F    
Average Humidity 65    
Maximum Humidity 93    
Minimum Humidity 37    
Precipitation  
Precipitation 0.00 in - - ()
Sea Level Pressure  
Sea Level Pressure 30.20 in    
Wind  
Wind Speed 6 mph (North)    
Max Wind Speed 10 mph    
Max Gust Speed -    
Visibility 9 miles    
Events      
Averages and records for this station are not official NWS values.
T = Trace of Precipitation, MM = Missing Value Source: NWS Daily Summary

Daily Weather History Graph

Daily Weather History Graph

Search for Another Location

Airport:

Trip Planner

Search our weather history database for the weather conditions in past years. The results will help you decide how hot, cold, wet, or windy it might be!

Date:

Astronomy

Jan. 25, 2013 Rise Set
Actual Time 7:36 AM CST 5:47 PM CST
Civil Twilight 7:08 AM CST 6:15 PM CST
Nautical Twilight 6:37 AM CST 6:46 PM CST
Astronomical Twilight 6:06 AM CST 7:17 PM CST
Moon 4:46 PM CST (1/25) 6:16 AM CST (1/25)
Length of Visible Light 11h 06m
Length of Day
10h 11m
Waxing Gibbous, 98% of the Moon is Illuminated
Jan 25
Waxing Gibbous
Jan 26
Full
Feb 3
Last Quarter
Feb 10
New
Feb 17
First Quarter

Hourly Weather History & Observations

Time (CST) Temp. Windchill Dew Point Humidity Pressure Visibility Wind Dir Wind Speed Gust Speed Precip Events Conditions
12:15 AM 26.6 °F 21.2 °F 24.8 °F 93% 30.16 in 10.0 mi NNW 4.6 mph - N/A   Overcast
12:35 AM 26.6 °F 19.1 °F 24.8 °F 93% 30.16 in 10.0 mi NNW 6.9 mph - N/A   Overcast
12:55 AM 26.6 °F 21.2 °F 24.8 °F 93% 30.14 in 10.0 mi North 4.6 mph - N/A   Overcast
1:15 AM 26.6 °F 19.1 °F 24.8 °F 93% 30.15 in 10.0 mi NNW 6.9 mph - N/A   Overcast
1:35 AM 26.6 °F 17.5 °F 24.8 °F 93% 30.15 in 10.0 mi NNW 9.2 mph - N/A   Overcast
1:55 AM 26.6 °F 21.2 °F 24.8 °F 93% 30.15 in 10.0 mi NNW 4.6 mph - N/A   Overcast
2:15 AM 26.6 °F 20.0 °F 24.8 °F 93% 30.15 in 10.0 mi NNW 5.8 mph - N/A   Overcast
2:35 AM 28.4 °F 20.4 °F 24.8 °F 86% 30.15 in 10.0 mi NNW 8.1 mph - N/A   Overcast
2:55 AM 28.4 °F 20.4 °F 23.0 °F 80% 30.16 in 10.0 mi NW 8.1 mph - N/A   Overcast
3:15 AM 28.4 °F 23.3 °F 23.0 °F 80% 30.15 in 10.0 mi NW 4.6 mph - N/A   Overcast
3:35 AM 28.4 °F 19.7 °F 23.0 °F 80% 30.16 in 10.0 mi NNW 9.2 mph - N/A   Overcast
3:55 AM 28.4 °F 19.7 °F 23.0 °F 80% 30.15 in 10.0 mi NNW 9.2 mph - N/A   Overcast
4:15 AM 28.4 °F 19.7 °F 24.8 °F 86% 30.15 in 10.0 mi NNW 9.2 mph - N/A   Overcast
4:35 AM 28.4 °F 19.1 °F 24.8 °F 86% 30.16 in 10.0 mi NNW 10.4 mph - N/A   Overcast
4:55 AM 28.4 °F 20.4 °F 24.8 °F 86% 30.17 in 10.0 mi NNW 8.1 mph - N/A   Overcast
5:15 AM 28.4 °F 19.7 °F 24.8 °F 86% 30.18 in 10.0 mi North 9.2 mph - N/A   Overcast
5:35 AM 28.4 °F 20.4 °F 24.8 °F 86% 30.18 in 10.0 mi NNW 8.1 mph - N/A   Overcast
5:55 AM 28.4 °F 20.4 °F 24.8 °F 86% 30.18 in 10.0 mi NNW 8.1 mph - N/A   Overcast
6:15 AM 28.4 °F 20.4 °F 24.8 °F 86% 30.19 in 10.0 mi NNW 8.1 mph - N/A   Overcast
6:35 AM 28.4 °F 22.2 °F 23.0 °F 80% 30.21 in 10.0 mi NW 5.8 mph - N/A   Overcast
6:55 AM 26.6 °F 20.0 °F 23.0 °F 86% 30.22 in 8.0 mi NW 5.8 mph - N/A   Mostly Cloudy
7:35 AM 24.8 °F 17.9 °F 21.2 °F 86% 30.21 in 5.0 mi NW 5.8 mph - N/A   Clear
7:55 AM 24.8 °F 19.1 °F 23.0 °F 93% 30.22 in 5.0 mi NW 4.6 mph - N/A   Clear
8:15 AM 24.8 °F 20.5 °F 23.0 °F 93% 30.21 in 5.0 mi NW 3.5 mph - N/A   Clear
8:35 AM 26.6 °F 22.6 °F 24.8 °F 93% 30.22 in 5.0 mi NW 3.5 mph - N/A   Clear
8:55 AM 28.4 °F 23.3 °F 24.8 °F 86% 30.22 in 6.0 mi NW 4.6 mph - N/A   Clear
9:15 AM 30.2 °F 25.4 °F 24.8 °F 80% 30.22 in 7.0 mi North 4.6 mph - N/A   Clear
9:35 AM 32.0 °F 24.8 °F 23.0 °F 69% 30.23 in 9.0 mi North 8.1 mph - N/A   Clear
9:55 AM 32.0 °F 26.4 °F 23.0 °F 69% 30.24 in 10.0 mi NW 5.8 mph - N/A   Clear
10:15 AM 33.8 °F 29.6 °F 23.0 °F 65% 30.25 in 10.0 mi North 4.6 mph - N/A   Clear
10:35 AM 33.8 °F 28.6 °F 23.0 °F 65% 30.26 in 10.0 mi NW 5.8 mph - N/A   Clear
10:55 AM 35.6 °F 29.9 °F 23.0 °F 60% 30.26 in 10.0 mi North 6.9 mph - N/A   Clear
11:15 AM 37.4 °F 30.8 °F 23.0 °F 56% 30.25 in 7.0 mi North 9.2 mph - N/A   Clear
11:35 AM 37.4 °F 32.1 °F 23.0 °F 56% 30.26 in 9.0 mi North 6.9 mph - N/A   Clear
11:55 AM 39.2 °F 34.2 °F 23.0 °F 52% 30.25 in 8.0 mi North 6.9 mph - N/A   Clear
12:15 PM 39.2 °F 33.6 °F 23.0 °F 52% 30.25 in 9.0 mi North 8.1 mph - N/A   Clear
12:35 PM 41.0 °F 35.2 °F 23.0 °F 49% 30.25 in 10.0 mi North 9.2 mph - N/A   Clear
12:55 PM 41.0 °F 38.0 °F 23.0 °F 49% 30.24 in 10.0 mi NNW 4.6 mph - N/A   Clear
1:15 PM 42.8 °F 39.3 °F 23.0 °F 46% 30.23 in 10.0 mi North 5.8 mph - N/A   Clear
1:35 PM 44.6 °F 40.7 °F 23.0 °F 43% 30.22 in 10.0 mi North 6.9 mph - N/A   Clear
1:55 PM 44.6 °F 39.7 °F 23.0 °F 43% 30.20 in 10.0 mi NNE 9.2 mph - N/A   Clear
2:15 PM 46.4 °F 43.5 °F 23.0 °F 40% 30.20 in 10.0 mi NNE 5.8 mph - N/A   Clear
2:35 PM 46.4 °F 41.9 °F 23.0 °F 40% 30.19 in 10.0 mi North 9.2 mph - N/A   Clear
2:55 PM 46.4 °F 42.9 °F 23.0 °F 40% 30.19 in 10.0 mi NE 6.9 mph - N/A   Clear
3:15 PM 46.4 °F 42.9 °F 23.0 °F 40% 30.19 in 10.0 mi North 6.9 mph - N/A   Clear
3:35 PM 46.4 °F 42.4 °F 23.0 °F 40% 30.19 in 10.0 mi North 8.1 mph - N/A   Clear
3:55 PM 46.4 °F 42.4 °F 23.0 °F 40% 30.19 in 10.0 mi NNE 8.1 mph - N/A   Clear
4:15 PM 46.4 °F 44.3 °F 23.0 °F 40% 30.19 in 10.0 mi NNE 4.6 mph - N/A   Clear
4:35 PM 48.2 °F - 23.0 °F 37% 30.19 in 10.0 mi ENE 4.6 mph - N/A   Clear
4:55 PM 46.4 °F - 23.0 °F 40% 30.19 in 10.0 mi Calm Calm - N/A   Clear
5:15 PM 46.4 °F - 23.0 °F 40% 30.19 in 10.0 mi Calm Calm - N/A   Clear
5:35 PM 46.4 °F - 23.0 °F 40% 30.19 in 10.0 mi Calm Calm - N/A   Clear
5:55 PM 44.6 °F - 23.0 °F 43% 30.19 in 9.0 mi Calm Calm - N/A   Clear
6:15 PM 44.6 °F 43.1 °F 23.0 °F 43% 30.18 in 8.0 mi NE 3.5 mph - N/A   Clear
6:35 PM 42.8 °F - 23.0 °F 46% 30.19 in 8.0 mi Calm Calm - N/A   Scattered Clouds
6:55 PM 41.0 °F 39.0 °F 24.8 °F 53% 30.20 in 9.0 mi North 3.5 mph - N/A   Mostly Cloudy
7:15 PM 41.0 °F 39.0 °F 24.8 °F 53% 30.20 in 10.0 mi North 3.5 mph - N/A   Scattered Clouds
7:35 PM 39.2 °F 37.0 °F 24.8 °F 56% 30.21 in 9.0 mi NNW 3.5 mph - N/A   Partly Cloudy
7:55 PM 39.2 °F 35.9 °F 24.8 °F 56% 30.22 in 8.0 mi NW 4.6 mph - N/A   Partly Cloudy
8:15 PM 39.2 °F 35.9 °F 24.8 °F 56% 30.22 in 10.0 mi NW 4.6 mph - N/A   Partly Cloudy
8:35 PM 39.2 °F 35.9 °F 24.8 °F 56% 30.21 in 10.0 mi NNW 4.6 mph - N/A   Clear
8:55 PM 37.4 °F 34.9 °F 24.8 °F 60% 30.21 in 10.0 mi NNW 3.5 mph - N/A   Partly Cloudy
9:15 PM 37.4 °F 33.8 °F 24.8 °F 60% 30.21 in 7.0 mi North 4.6 mph - N/A   Partly Cloudy
9:35 PM 37.4 °F 33.8 °F 24.8 °F 60% 30.21 in 10.0 mi North 4.6 mph - N/A   Partly Cloudy
9:55 PM 37.4 °F 32.8 °F 24.8 °F 60% 30.22 in 10.0 mi North 5.8 mph - N/A   Partly Cloudy
10:15 PM 37.4 °F 34.9 °F 24.8 °F 60% 30.23 in 10.0 mi NE 3.5 mph - N/A   Partly Cloudy
10:35 PM 37.4 °F 34.9 °F 24.8 °F 60% 30.24 in 10.0 mi NNE 3.5 mph - N/A   Partly Cloudy
10:55 PM 37.4 °F 34.9 °F 24.8 °F 60% 30.23 in 10.0 mi NNE 3.5 mph - N/A   Clear
11:15 PM 37.4 °F 32.8 °F 24.8 °F 60% 30.23 in 10.0 mi NE 5.8 mph - N/A   Clear
11:35 PM 35.6 °F 31.7 °F 24.8 °F 65% 30.24 in 10.0 mi NNE 4.6 mph - N/A   Clear
11:55 PM 35.6 °F 30.7 °F 24.8 °F 65% 30.24 in 10.0 mi NNE 5.8 mph - N/A   Clear